This demonstration page uses our WeatherBlox Daily Observations layout. Learn more.

Left ArrowRight Arrow

39.01783, -85.05884

Hourly Observations for September 5, 2017

Temp ( °F °C ) Dew Point ( °F °C ) Humidity (%) Winds ( mph kmh ) Pressure ( in mb ) Visibility ( mi km ) Precip ( " mm )
12:52 am 00:52 Cloudy 75 23.9 68 20 79 79 SSW 15 24 29.75 1007 10 16 0.00 0.00
1:52 am 01:52 Cloudy 74 23.3 69 20.6 85 85 SW 10 17 29.74 1007 10 16 0.00 0.00
2:52 am 02:52 Cloudy 73 22.8 69 20.6 87 87 SW 12 19 29.74 1007 10 16 0.00 0.00
3:22 am 03:22 Cloudy 73 22.8 70 21.1 90 90 SSW 9 15 29.74 1007 9 14 0.00 0.00
3:52 am 03:52 Cloudy 72 22.2 71 21.7 97 97 WSW 6 9 29.75 1007 8 13 0.05 1.27
4:20 am 04:20 Cloudy 72 22.2 71 21.7 97 97 W 7 11 29.74 1007 7 11 0.00 0.00
4:42 am 04:42 Mostly Cloudy with Mist and Fog 71 21.7 71 21.7 100 100 W 7 11 29.74 1007 5 8 0.00 0.00
4:52 am 04:52 Mostly Cloudy with Mist and Fog 71 21.7 71 21.7 100 100 W 8 13 29.75 1008 5 8 0.00 0.00
5:02 am 05:02 Cloudy with Mist and Fog 71 21.7 71 21.7 100 100 W 9 15 29.77 1008 5 8 0.00 0.00
5:13 am 05:13 Cloudy with Mist and Fog 71 21.7 71 21.7 100 100 WNW 10 17 29.77 1008 6 10 0.00 0.00
5:52 am 05:52 Cloudy 70 21.1 69 20.6 97 97 NW 13 20 29.78 1008 8 13 0.00 0.00
6:52 am 06:52 Cloudy with Light Rain 68 20 65 18.3 90 90 NW 3 6 29.79 1009 7 11 0.01 0.25
6:59 am 06:59 Cloudy with Nearby Thunderstorms 68 20 65 18.3 90 90 NW 5 7 29.80 1009 10 16 0.00 0.03
7:22 am 07:22 Cloudy 67 19.4 64 17.8 91 91 NW 8 13 29.80 1009 10 16 0.00 0.03
7:52 am 07:52 Cloudy 67 19.4 65 18.3 93 93 NW 6 9 29.82 1010 9 14 0.00 0.03
8:52 am 08:52 Cloudy 66 18.9 64 17.8 93 93 WNW 6 9 29.83 1010 9 14 0.00 0.00
9:52 am 09:52 Cloudy 67 19.4 65 18.3 93 93 WNW 7 11 29.84 1011 9 14 0.00 0.00
10:52 am 10:52 Cloudy 68 20 64 17.8 87 87 W 8 13 29.85 1011 9 14 0.00 0.00
11:07 am 11:07 Cloudy 69 20.6 65 18.3 87 87 W 9 15 29.85 1011 9 14 0.00 0.00
11:52 am 11:52 Cloudy 70 21.1 64 17.8 82 82 WNW 12 19 29.85 1011 9 14 0.00 0.00
12:52 pm 12:52 Cloudy 69 20.6 59 15 70 70 WNW 13 20 29.86 1011 8 13 0.00 0.00
1:52 pm 13:52 Mostly Cloudy 71 21.7 58 14.4 63 63 W 15 24 29.85 1011 10 16 0.00 0.00
2:52 pm 14:52 Mostly Cloudy 72 22.2 55 12.8 55 55 NW 14 22 29.84 1011 10 16 0.00 0.00
3:52 pm 15:52 Mostly Cloudy 71 21.7 53 11.7 53 53 W 13 20 29.83 1010 10 16 0.00 0.00
4:52 pm 16:52 Mostly Cloudy 72 22.2 52 11.1 50 50 NW 16 26 29.84 1011 10 16 0.00 0.00
5:52 pm 17:52 Partly Cloudy 71 21.7 49 9.4 46 46 WNW 13 20 29.83 1010 10 16 0.00 0.00
6:52 pm 18:52 Mostly Sunny 70 21.1 48 8.9 46 46 WNW 14 22 29.85 1011 10 16 0.00 0.00
7:52 pm 19:52 Mostly Sunny 66 18.9 48 8.9 52 52 NW 12 19 29.88 1012 10 16 0.00 0.00
8:52 pm 20:52 Mostly Clear 62 16.7 49 9.4 62 62 NW 8 13 29.90 1012 10 16 0.00 0.00
9:52 pm 21:52 Clear 58 14.4 50 10 75 75 WNW 6 9 29.91 1013 10 16 0.00 0.00
10:52 pm 22:52 Clear 58 14.4 50 10 75 75 W 5 7 29.91 1013 10 16 0.00 0.00
11:52 pm 23:52 Mostly Clear 57 13.9 51 10.6 81 81 Calm 29.92 1013 10 16 0.00 0.00

Powered by AerisWeather